Sandpoint, ID

9:26 PM PDT on September 25, 2017 (GMT -0700)
Sandpoint

Weather History for KSZT - April, 2014

Change the Weather History Date:

Wednesday, April 2, 2014

  Actual Average Record
Temperature  
Mean Temperature 40 °F -  
Max Temperature 53 °F 53 °F 69 °F (1987)
Min Temperature 28 °F 31 °F 9 °F (1936)
Degree Days  
Heating Degree Days 24    
Moisture  
Dew Point 28 °F    
Average Humidity 69    
Maximum Humidity 100    
Minimum Humidity 28    
Precipitation  
Precipitation 0.00 in - - ()
Sea Level Pressure  
Sea Level Pressure 29.82 in    
Wind  
Wind Speed 2 mph (South)    
Max Wind Speed 13 mph    
Max Gust Speed 16 mph    
Visibility 10 miles    
Events      
Averages and records for this station are not official NWS values.
T = Trace of Precipitation, MM = Missing Value Source: NWS Daily Summary

Daily Weather History Graph

Daily Weather History Graph

Search for Another Location

Airport or City:

Trip Planner

Search our weather history database for the weather conditions in past years. The results will help you decide how hot, cold, wet, or windy it might be!

Date:

Astronomy

Apr. 02, 2014 Rise Set
Actual Time 6:22 AM PDT 7:18 PM PDT
Civil Twilight 5:50 AM PDT 7:50 PM PDT
Nautical Twilight 5:12 AM PDT 8:28 PM PDT
Astronomical Twilight 4:32 AM PDT 9:08 PM PDT
Moon 7:56 AM PDT (4/2) 11:00 PM PDT (4/2)
Length of Visible Light 13h 59m
Length of Day
12h 56m
Waxing Crescent, 11% of the Moon is Illuminated
Apr 2
Waxing Crescent
Apr 7
First Quarter
Apr 15
Full
Apr 22
Last Quarter
Apr 28
New

Hourly Weather History & Observations

Time (PDT) Temp. Windchill Dew Point Humidity Pressure Visibility Wind Dir Wind Speed Gust Speed Precip Events Conditions
12:15 AM 32.0 °F 27.5 °F 30.2 °F 93% 29.74 in 10.0 mi West 4.6 mph - N/A   Clear
12:35 AM 32.0 °F - 28.4 °F 87% 29.74 in 10.0 mi Calm Calm - N/A   Scattered Clouds
12:55 AM 32.0 °F 28.7 °F 28.4 °F 87% 29.74 in 10.0 mi West 3.5 mph - N/A   Scattered Clouds
1:15 AM 32.0 °F - 28.4 °F 87% 29.74 in 10.0 mi Calm Calm - N/A   Scattered Clouds
1:35 AM 32.0 °F - 30.2 °F 93% 29.75 in 10.0 mi Calm Calm - N/A   Scattered Clouds
1:55 AM 30.2 °F - 30.2 °F 100% 29.75 in 10.0 mi Calm Calm - N/A   Mostly Cloudy
2:15 AM 32.0 °F - 32.0 °F 100% 29.75 in 10.0 mi Calm Calm - N/A   Mostly Cloudy
2:35 AM 30.2 °F - 30.2 °F 100% 29.75 in 10.0 mi Calm Calm - N/A   Scattered Clouds
2:55 AM 30.2 °F - 30.2 °F 100% 29.75 in 10.0 mi Calm Calm - N/A   Mostly Cloudy
3:15 AM 30.2 °F - 30.2 °F 100% 29.75 in 10.0 mi Calm Calm - N/A   Mostly Cloudy
3:35 AM 30.2 °F - 30.2 °F 100% 29.76 in 10.0 mi Calm Calm - N/A   Overcast
3:55 AM 30.2 °F - 30.2 °F 100% 29.76 in 10.0 mi Calm Calm - N/A   Mostly Cloudy
4:15 AM 28.4 °F - 28.4 °F 100% 29.76 in 10.0 mi Calm Calm - N/A   Mostly Cloudy
5:35 AM 28.4 °F - 28.4 °F 100% 29.78 in 10.0 mi Calm Calm - N/A   Clear
5:55 AM 28.4 °F - 28.4 °F 100% 29.78 in 10.0 mi Calm Calm - N/A   Clear
6:15 AM 28.4 °F - 28.4 °F 100% 29.79 in 10.0 mi Calm Calm - N/A   Clear
6:35 AM 28.4 °F - 28.4 °F 100% 29.79 in 10.0 mi Calm Calm - N/A   Clear
6:55 AM 28.4 °F - 28.4 °F 100% 29.80 in 10.0 mi Calm Calm - N/A   Scattered Clouds
7:15 AM 30.2 °F - 30.2 °F 100% 29.81 in 10.0 mi Calm Calm - N/A   Mostly Cloudy
7:35 AM 30.2 °F - 30.2 °F 100% 29.81 in 10.0 mi Calm Calm - N/A   Scattered Clouds
7:55 AM 32.0 °F - 30.2 °F 93% 29.81 in 10.0 mi Calm Calm - N/A   Scattered Clouds
8:15 AM 33.8 °F - 30.2 °F 87% 29.82 in 10.0 mi Calm Calm - N/A   Scattered Clouds
8:35 AM 35.6 °F - 30.2 °F 81% 29.82 in 10.0 mi Calm Calm - N/A   Scattered Clouds
8:55 AM 37.4 °F 34.9 °F 28.4 °F 70% 29.82 in 10.0 mi NNE 3.5 mph - N/A   Scattered Clouds
9:35 AM 42.8 °F - 28.4 °F 57% 29.83 in 10.0 mi Calm Calm - N/A   Clear
9:55 AM 42.8 °F - 28.4 °F 57% 29.83 in 10.0 mi Calm Calm - N/A   Clear
10:15 AM 42.8 °F 40.1 °F 28.4 °F 57% 29.83 in 10.0 mi SE 4.6 mph - N/A   Clear
10:35 AM 42.8 °F 41.1 °F 30.2 °F 61% 29.83 in 10.0 mi SSE 3.5 mph - N/A   Clear
10:55 AM 44.6 °F 40.7 °F 30.2 °F 57% 29.83 in 10.0 mi SE 6.9 mph - N/A   Clear
11:15 AM 46.4 °F 42.9 °F 30.2 °F 53% 29.83 in 10.0 mi SSE 6.9 mph - N/A   Scattered Clouds
11:35 AM 46.4 °F 41.9 °F 32.0 °F 57% 29.83 in 10.0 mi ESE 9.2 mph - N/A   Mostly Cloudy
11:55 AM 46.4 °F 42.9 °F 32.0 °F 57% 29.82 in 10.0 mi East 6.9 mph - N/A   Scattered Clouds
12:15 PM 48.2 °F - 32.0 °F 54% 29.82 in 10.0 mi ESE 10.4 mph - N/A   Scattered Clouds
12:35 PM 50.0 °F - 32.0 °F 50% 29.81 in 10.0 mi East 12.7 mph - N/A   Mostly Cloudy
12:55 PM 50.0 °F - 32.0 °F 50% 29.81 in 10.0 mi ESE 8.1 mph - N/A   Mostly Cloudy
1:15 PM 51.8 °F - 32.0 °F 47% 29.81 in 10.0 mi East 4.6 mph - N/A   Mostly Cloudy
1:35 PM 53.6 °F - 26.6 °F 35% 29.81 in 10.0 mi SW 11.5 mph - N/A   Overcast
1:55 PM 53.6 °F - 21.2 °F 28% 29.81 in 10.0 mi SW 11.5 mph 16.1 mph N/A   Scattered Clouds
2:15 PM 53.6 °F - 21.2 °F 28% 29.81 in 10.0 mi WSW 9.2 mph - N/A   Scattered Clouds
2:35 PM 53.6 °F - 23.0 °F 30% 29.81 in 10.0 mi SSW 9.2 mph - N/A   Mostly Cloudy
3:15 PM 51.8 °F - 23.0 °F 33% 29.81 in 10.0 mi East 3.5 mph - N/A   Overcast
3:35 PM 51.8 °F - 21.2 °F 30% 29.81 in 10.0 mi Calm Calm - N/A   Overcast
3:55 PM 51.8 °F - 23.0 °F 33% 29.81 in 10.0 mi Calm Calm - N/A   Overcast
4:15 PM 53.6 °F - 23.0 °F 30% 29.81 in 10.0 mi NNE 3.5 mph - N/A   Overcast
4:35 PM 51.8 °F - 23.0 °F 33% 29.81 in 10.0 mi East 4.6 mph - N/A   Overcast
4:55 PM 51.8 °F - 23.0 °F 33% 29.82 in 10.0 mi NNW 5.8 mph - N/A   Overcast
5:15 PM 51.8 °F - 23.0 °F 33% 29.82 in 10.0 mi SW 4.6 mph - N/A   Overcast
5:35 PM 51.8 °F - 23.0 °F 33% 29.83 in 10.0 mi SW 8.1 mph - N/A   Overcast
5:55 PM 51.8 °F - 23.0 °F 33% 29.83 in 10.0 mi SW 4.6 mph - N/A   Mostly Cloudy
6:15 PM 51.8 °F - 23.0 °F 33% 29.83 in 10.0 mi SW 5.8 mph - N/A   Overcast
6:35 PM 51.8 °F - 21.2 °F 30% 29.84 in 10.0 mi WSW 3.5 mph - N/A   Mostly Cloudy
6:55 PM 50.0 °F - 26.6 °F 40% 29.84 in 10.0 mi Calm Calm - N/A   Scattered Clouds
7:15 PM 46.4 °F 45.2 °F 30.2 °F 53% 29.85 in 10.0 mi WNW 3.5 mph - N/A   Mostly Cloudy
7:35 PM 42.8 °F - 32.0 °F 66% 29.86 in 10.0 mi Calm Calm - N/A   Overcast
7:55 PM 44.6 °F - 30.2 °F 57% 29.87 in 10.0 mi Calm Calm - N/A   Mostly Cloudy
8:15 PM 41.0 °F - 32.0 °F 70% 29.88 in 7.0 mi Calm Calm - N/A   Clear
8:35 PM 37.4 °F - 32.0 °F 81% 29.88 in 10.0 mi Calm Calm - N/A   Clear
8:55 PM 37.4 °F - 30.2 °F 75% 29.88 in 10.0 mi Calm Calm - N/A   Clear
9:15 PM 37.4 °F - 30.2 °F 75% 29.89 in 10.0 mi Calm Calm - N/A   Clear
9:35 PM 35.6 °F - 30.2 °F 81% 29.89 in 10.0 mi Calm Calm - N/A   Clear
9:55 PM 33.8 °F - 30.2 °F 87% 29.89 in 10.0 mi Calm Calm - N/A   Clear
10:15 PM 33.8 °F - 30.2 °F 87% 29.90 in 10.0 mi Calm Calm - N/A   Clear
10:35 PM 33.8 °F - 30.2 °F 87% 29.90 in 10.0 mi Calm Calm - N/A   Clear
10:55 PM 33.8 °F - 30.2 °F 87% 29.90 in 10.0 mi Calm Calm - N/A   Clear
11:15 PM 32.0 °F - 30.2 °F 93% 29.91 in 10.0 mi Calm Calm - N/A   Clear
11:35 PM 32.0 °F - 30.2 °F 93% 29.91 in 10.0 mi Calm Calm - N/A   Scattered Clouds
11:55 PM 32.0 °F - 28.4 °F 87% 29.92 in 10.0 mi Calm Calm - N/A   Scattered Clouds